User: anonymous   Login
Location: Ostrava
(49.8330°N, 18.2830°E)
Time: 15:58:05
(UTC+02:00)
Language:

Cosmos 2221 - Orbit

View from above orbital plane
View from above orbital plane
View from above satellite
View from above satellite

Ground track
Ground track

The orbit data is extracted from the following two-line orbital elements,

1 22236U 92080A   17178.64430971 +.00000173 +00000-0 +16295-4 0  9990
2 22236 082.5082 049.3734 0015988 330.0619 029.9683 14.87596635328874
Epoch (UTC): 27 June 2017 15:27:48
Eccentricity: 0.0015988
inclination: 82.5082°
perigee height: 594 km
apogee height: 616 km
right ascension of ascending node: 49.3734°
argument of perigee: 330.0619°
revolutions per day: 14.87596635
mean anomaly at epoch: 29.9683°
orbit number at epoch: 32887

The dashed part of the orbit path shows where the satellite is in the earth's shadow,  

DLR